#timestamp,LO_Frequency,Hit,StdDev 
1575644415.6,286046997.1,N
1575644435.5,286046997.5,N
1575644485.4,286046994.9,E
1575644495.3,286046999.0,N
1575644515.1,286047004.2,P
1575644535.9,286046999.7,N
1575644555.7,286046999.7,N
1575644575.5,286047002.4,N
1575644595.4,286047001.3,N
1575644615.2,286047002.6,N
1575644635.0,286047000.5,N
1575644635.9,286047000.5,N
1575644655.8,286047000.8,N
1575644675.6,286046997.1,N
1575644695.5,286046995.4,N
1575644715.3,286046997.6,N
1575644735.1,286046997.0,N
1575644755.9,286046997.5,N
1575644775.7,286046993.5,N
1575644795.5,286046995.5,N
1575644815.4,286046998.9,N
1575644835.2,286047002.5,N
1575644855.1,286047004.1,N
1575644856.0,286047004.1,N
1575644875.8,286047003.2,N
1575644895.6,286047000.0,N
1575644915.5,286047000.2,N
1575644935.3,286046996.8,N
1575644955.1,286046997.7,N
1575644975.9,286046994.2,N
1575644995.7,286046994.1,N
1575645015.6,286046992.5,N
1575645035.4,286046990.9,N
1575645055.2,286046990.1,N
1575645075.1,286046993.2,N
1575645076.0,286046993.2,N
1575645095.8,286046992.6,N
1575645115.6,286046993.2,N
1575645135.5,286046992.2,N
1575645155.3,286046994.7,N
1575645175.2,286046990.6,N
1575645195.9,286046990.8,N
1575645215.7,286046989.8,N
1575645235.6,286046992.9,N
1575645255.4,286046992.6,N
1575645275.2,286046991.7,N
1575645295.1,286046990.4,N
1575645296.0,286046990.4,N
1575645315.8,286046993.0,N
1575645335.7,286046991.3,N
1575645355.5,286046994.8,N
1575645375.3,286046994.0,N
1575645395.2,286046995.9,N
1575645415.0,286046997.6,N
1575645415.9,286046997.6,N
1575645435.7,286046999.3,N
1575645455.6,286046995.8,N
1575645475.4,286046992.6,N
1575645495.3,286046991.3,Y
1575645515.1,286046999.6,P
1575645516.0,286046999.6,N
1575645535.8,286046996.5,N
1575645555.7,286047000.2,N
1575645575.5,286047001.5,N
1575645595.3,286047004.4,N
1575645615.2,286047005.5,N
1575645635.0,286047003.5,N
1575645635.9,286047003.5,N
1575645655.8,286047007.4,N
1575645675.6,286047010.7,N
1575645695.4,286047008.0,N
1575645715.3,286047010.8,N
1575645735.1,286047010.7,N
1575645755.9,286047009.6,N
1575645775.7,286047012.4,N
1575645795.5,286047009.3,N
1575645815.4,286047014.0,N
1575645835.2,286047015.2,N
1575645855.0,286047013.9,N
1575645855.9,286047013.9,N
1575645875.8,286047013.5,N
1575645895.6,286047013.8,N
1575645915.5,286047013.4,N
1575645935.3,286047012.7,N
1575645955.1,286047014.1,N
1575645975.9,286047014.3,N
1575645995.7,286047015.0,N
1575646015.6,286047015.1,N
1575646035.4,286047015.3,N
1575646055.2,286047016.3,N
1575646075.1,286047014.7,N
1575646076.0,286047014.7,N
1575646095.8,286047016.5,Y
1575646115.7,286047005.3,P
1575646135.5,286047006.6,N
1575646155.3,286047011.9,P
1575646175.2,286047010.9,Y
1575646195.0,286046998.4,P
1575646195.9,286046998.4,N
1575646215.7,286046999.2,N
1575646235.6,286046996.7,N
1575646255.4,286046997.8,N
1575646275.3,286046995.2,N
1575646295.1,286046995.9,N
1575646315.8,286046998.0,N
1575646335.7,286046995.9,N
1575646355.5,286046995.4,N
1575646375.4,286046996.7,N
1575646395.2,286046995.5,N
1575646415.0,286046997.1,N
1575646415.9,286046997.1,N
1575646435.8,286046999.4,N
1575646455.6,286046996.9,N
1575646475.4,286046998.1,N
1575646495.3,286047000.8,N
1575646515.1,286047000.0,N
1575646535.9,286047002.2,N
1575646555.7,286047002.3,N
1575646575.5,286047001.7,N
1575646595.4,286047004.0,N
1575646615.2,286047001.5,N
1575646635.1,286047001.4,N
1575646636.0,286047001.4,N
1575646655.8,286047001.6,N
1575646675.6,286047001.7,N
1575646695.5,286047004.4,N
1575646715.3,286047001.4,N
1575646735.1,286047004.2,N
1575646755.9,286047007.4,N
1575646775.7,286047008.6,N
1575646795.6,286047010.8,Y
1575646815.4,286047003.3,P
1575646835.2,286047004.0,N
1575646855.1,286047004.3,N
1575646856.0,286047004.3,N
1575646875.8,286047003.4,N
1575646895.6,286047003.9,N
1575646915.5,286047002.3,N
1575646935.3,286047003.9,N
1575646955.2,286047003.5,N
1575646975.9,286047003.5,N
1575646995.7,286047005.4,Y
1575647015.6,286047002.2,P
1575647035.4,286047003.6,P
1575647055.2,286047005.4,P
1575647075.1,286047007.0,Y
1575647076.0,286047007.0,P
1575647095.8,286047004.9,N
1575647115.7,286047001.4,N
1575647135.5,286046998.3,N
1575647155.3,286046996.5,N
1575647175.2,286047001.1,N
1575647195.0,286046997.4,N
1575647195.9,286046997.4,N
1575647215.8,286046993.3,N
1575647235.6,286046996.1,N
1575647255.4,286046995.9,N
1575647275.3,286046999.5,N
1575647295.1,286047002.5,N
1575647315.8,286046999.4,N
1575647335.7,286047001.0,N
1575647355.5,286047000.0,N
1575647375.4,286047003.9,N
1575647395.2,286047001.7,N
1575647415.0,286047005.1,N
1575647415.9,286047005.1,N
1575647435.8,286047006.9,N
1575647455.6,286047006.7,N
1575647475.4,286047006.2,N
1575647495.3,286047006.6,N
1575647515.1,286047006.3,N
1575647535.9,286047008.5,N
1575647555.7,286047006.2,N
1575647575.5,286047007.8,N
1575647595.4,286047009.4,N
1575647615.2,286047010.1,N
1575647635.0,286047009.4,N
1575647635.9,286047009.4,N
1575647655.8,286047012.3,N
1575647675.6,286047012.6,N
1575647695.5,286047013.0,N
1575647715.3,286047011.7,N
1575647735.1,286047013.9,N
1575647755.9,286047011.9,N
1575647775.7,286047006.1,N
1575647795.5,286047008.6,N
1575647815.4,286047009.7,N
1575647835.2,286047011.4,N
1575647855.1,286047013.6,Y
1575647856.0,286047013.6,P
1575647875.8,286047007.9,N
1575647895.6,286047008.1,N
1575647915.5,286047009.0,Y
1575647935.3,286047000.7,P
1575647955.2,286047000.0,N
1575647975.9,286046999.8,N
1575647995.7,286047002.2,N
